User: anonymous   Login
Location: Caltech
(34.1382°N, 118.1253°W)
Time: 20:29:34
(UTC-07:00)
Language:

Cosmos 2322 - Orbit

View from above orbital plane
View from above orbital plane
View from above satellite
View from above satellite

Ground track
Ground track

The orbit data is extracted from the following two-line orbital elements,

1 23704U 95058A   15179.90236968 -.00000229  00000-0 -96825-4 0  9998
2 23704 070.9875 111.3293 0006620 103.8338 319.8141 14.13328265 14214
Epoch (UTC): 28 June 2015 21:39:24
Eccentricity: 0.0006620
inclination: 70.9875°
perigee height: 843 km
apogee height: 853 km
right ascension of ascending node: 111.3293°
argument of perigee: 103.8338°
revolutions per day: 14.13328265
mean anomaly at epoch: 319.8141°
orbit number at epoch: 1421

The dashed part of the orbit path shows where the satellite is in the earth's shadow,  

DLR